Allentown, PA

1:47 AM EDT on May 21, 2018 (GMT -0400)
Allentown

Weather History for KXLL - November, 2012

Change the Weather History Date:

Wednesday, November 7, 2012

  Actual Average (KABE) Record (KABE)
Temperature  
Mean Temperature 36 °F -  
Max Temperature 41 °F 53 °F 74 °F (1938)
Min Temperature 32 °F 34 °F 23 °F (2009)
Degree Days  
Heating Degree Days 28    
Moisture  
Dew Point 24 °F    
Average Humidity 63    
Maximum Humidity 93    
Minimum Humidity 52    
Precipitation  
Precipitation 0.00 in - - ()
Sea Level Pressure  
Sea Level Pressure 29.95 in    
Wind  
Wind Speed 10 mph (NNE)    
Max Wind Speed 16 mph    
Max Gust Speed 23 mph    
Visibility 10 miles    
Events Rain , Snow    
Averages and records for this station are not official NWS values.
T = Trace of Precipitation, MM = Missing Value Source: NWS Daily Summary

Daily Weather History Graph

Daily Weather History Graph

Search for Another Location

Airport or City:

Astronomy

Nov. 07, 2012 Rise Set
Actual Time 6:39 AM EST 4:51 PM EST
Civil Twilight 6:10 AM EST 5:20 PM EST
Nautical Twilight 5:38 AM EST 5:52 PM EST
Astronomical Twilight 5:06 AM EST 6:24 PM EST
Moon No Moon Rise 1:00 PM EST (11/7)
Length of Visible Light 11h 09m
Length of Day
10h 11m
Last Quarter, 43% of the Moon is Illuminated
Nov 7
Last Quarter
Nov 13
New
Nov 20
First Quarter
Nov 28
Full
Dec 6
Last Quarter

Hourly Weather History & Observations

Time (EST) Temp. Windchill Dew Point Humidity Pressure Visibility Wind Dir Wind Speed Gust Speed Precip Events Conditions
12:15 AM 32.0 °F 25.6 °F 21.2 °F 64% 30.09 in 10.0 mi NE 6.9 mph - N/A   Clear
12:35 AM 32.0 °F 25.6 °F 21.2 °F 64% 30.07 in 10.0 mi NE 6.9 mph - N/A   Clear
12:55 AM 32.0 °F 26.4 °F 21.2 °F 64% 30.07 in 10.0 mi NNE 5.8 mph - N/A   Clear
1:15 AM 32.0 °F 26.4 °F 21.2 °F 64% 30.05 in 10.0 mi NNE 5.8 mph - N/A   Mostly Cloudy
1:35 AM 32.0 °F 25.6 °F 21.2 °F 64% 30.04 in 10.0 mi NNE 6.9 mph - N/A   Scattered Clouds
1:55 AM 32.0 °F 26.4 °F 21.2 °F 64% 30.03 in 10.0 mi NE 5.8 mph - N/A   Clear
2:15 AM 32.0 °F 26.4 °F 21.2 °F 64% 30.03 in 10.0 mi ENE 5.8 mph - N/A   Clear
2:35 AM 32.0 °F 25.6 °F 21.2 °F 64% 30.02 in 10.0 mi NE 6.9 mph - N/A   Clear
2:55 AM 32.0 °F 24.8 °F 19.4 °F 60% 30.00 in 10.0 mi NE 8.1 mph - N/A   Clear
3:15 AM 32.0 °F 26.4 °F 19.4 °F 60% 30.00 in 10.0 mi NE 5.8 mph - N/A   Clear
3:55 AM 33.8 °F 27.0 °F 19.4 °F 56% 29.99 in 10.0 mi NNE 8.1 mph - N/A   Clear
4:15 AM 33.8 °F 25.8 °F 17.6 °F 52% 29.97 in 10.0 mi NE 10.4 mph 17.3 mph N/A   Clear
4:35 AM 33.8 °F 23.9 °F 17.6 °F 52% 29.97 in 10.0 mi NE 15.0 mph 18.4 mph N/A   Clear
4:55 AM 33.8 °F 24.3 °F 17.6 °F 52% 29.97 in 10.0 mi NE 13.8 mph 18.4 mph N/A   Clear
5:35 AM 33.8 °F 24.3 °F 17.6 °F 52% 29.98 in 10.0 mi NE 13.8 mph 21.9 mph N/A   Clear
5:55 AM 33.8 °F 23.9 °F 19.4 °F 56% 29.98 in 10.0 mi NE 15.0 mph 21.9 mph N/A   Scattered Clouds
6:15 AM 33.8 °F 25.3 °F 19.4 °F 56% 29.98 in 10.0 mi NE 11.5 mph 23.0 mph N/A   Clear
6:35 AM 33.8 °F 23.9 °F 19.4 °F 56% 29.99 in 10.0 mi NE 15.0 mph 18.4 mph N/A   Scattered Clouds
6:55 AM 33.8 °F 24.3 °F 19.4 °F 56% 29.99 in 10.0 mi NE 13.8 mph 18.4 mph N/A   Scattered Clouds
7:15 AM 33.8 °F 25.3 °F 21.2 °F 60% 29.99 in 10.0 mi NE 11.5 mph 18.4 mph N/A   Scattered Clouds
7:35 AM 33.8 °F 25.8 °F 21.2 °F 60% 29.99 in 10.0 mi NNE 10.4 mph - N/A   Scattered Clouds
7:55 AM 33.8 °F 25.3 °F 21.2 °F 60% 29.99 in 10.0 mi NE 11.5 mph 16.1 mph N/A   Scattered Clouds
8:15 AM 35.6 °F 28.6 °F 23.0 °F 60% 29.98 in 10.0 mi NNE 9.2 mph - N/A   Clear
8:35 AM 35.6 °F 27.1 °F 23.0 °F 60% 29.99 in 10.0 mi NE 12.7 mph - N/A   Scattered Clouds
8:55 AM 35.6 °F 25.9 °F 23.0 °F 60% 29.98 in 10.0 mi NE 16.1 mph 20.7 mph N/A   Overcast
9:15 AM 35.6 °F 28.0 °F 24.8 °F 65% 29.97 in 10.0 mi NE 10.4 mph 19.6 mph N/A   Mostly Cloudy
9:35 AM 37.4 °F 31.4 °F 24.8 °F 60% 29.96 in 10.0 mi NNE 8.1 mph - N/A   Mostly Cloudy
9:55 AM 37.4 °F 29.3 °F 24.8 °F 60% 29.96 in 10.0 mi NNE 12.7 mph 18.4 mph N/A   Scattered Clouds
10:15 AM 37.4 °F 29.8 °F 24.8 °F 60% 29.95 in 10.0 mi NNE 11.5 mph 20.7 mph N/A   Clear
10:35 AM 37.4 °F 29.3 °F 24.8 °F 60% 29.95 in 10.0 mi NNE 12.7 mph - N/A   Clear
10:55 AM 37.4 °F 29.8 °F 24.8 °F 60% 29.94 in 10.0 mi NE 11.5 mph 19.6 mph N/A   Clear
11:15 AM 37.4 °F 28.5 °F 24.8 °F 60% 29.94 in 10.0 mi NNE 15.0 mph - N/A   Clear
11:35 AM 37.4 °F 30.3 °F 24.8 °F 60% 29.93 in 10.0 mi NNE 10.4 mph 18.4 mph N/A   Scattered Clouds
11:55 AM 39.2 °F 31.6 °F 26.6 °F 61% 29.92 in 10.0 mi NNE 12.7 mph 18.4 mph N/A   Scattered Clouds
12:15 PM 39.2 °F 32.5 °F 26.6 °F 61% 29.91 in 10.0 mi NNE 10.4 mph 19.6 mph N/A   Scattered Clouds
12:35 PM 39.2 °F 33.0 °F 26.6 °F 61% 29.91 in 10.0 mi North 9.2 mph - N/A   Mostly Cloudy
12:55 PM 39.2 °F 31.6 °F 26.6 °F 61% 29.90 in 10.0 mi NNE 12.7 mph - N/A   Overcast
1:15 PM 39.2 °F 33.6 °F 26.6 °F 61% 29.91 in 10.0 mi North 8.1 mph - N/A   Overcast
1:35 PM 39.2 °F 31.6 °F 24.8 °F 56% 29.91 in 10.0 mi NNE 12.7 mph 18.4 mph N/A   Overcast
1:55 PM 41.0 °F 34.3 °F 26.6 °F 57% 29.91 in 10.0 mi NNE 11.5 mph - N/A   Overcast
2:15 PM 41.0 °F 34.7 °F 26.6 °F 57% 29.91 in 10.0 mi North 10.4 mph 16.1 mph N/A   Overcast
2:35 PM 41.0 °F 33.5 °F 26.6 °F 57% 29.91 in 10.0 mi North 13.8 mph - N/A   Overcast
2:55 PM 41.0 °F 33.9 °F 26.6 °F 57% 29.92 in 10.0 mi North 12.7 mph 17.3 mph N/A   Overcast
3:15 PM 41.0 °F 35.2 °F 24.8 °F 53% 29.92 in 10.0 mi North 9.2 mph 16.1 mph N/A   Overcast
3:35 PM 39.2 °F 31.6 °F 26.6 °F 61% 29.92 in 10.0 mi North 12.7 mph 17.3 mph N/A   Overcast
3:55 PM 37.4 °F 29.8 °F 28.4 °F 70% 29.92 in 10.0 mi North 11.5 mph 19.6 mph N/A Rain Light Rain
4:15 PM 37.4 °F 30.3 °F 28.4 °F 70% 29.92 in 10.0 mi North 10.4 mph - N/A   Mostly Cloudy
4:35 PM 37.4 °F 30.8 °F 28.4 °F 70% 29.92 in 10.0 mi North 9.2 mph - N/A Rain Light Rain
4:55 PM 35.6 °F 28.6 °F 30.2 °F 81% 29.92 in 10.0 mi North 9.2 mph 18.4 mph N/A Rain Light Rain
5:15 PM 35.6 °F 27.1 °F 30.2 °F 81% 29.92 in 10.0 mi NNW 12.7 mph 20.7 mph N/A Rain Light Rain
5:35 PM 33.8 °F 27.7 °F 32.0 °F 93% 29.91 in 10.0 mi NNW 6.9 mph - N/A   Mostly Cloudy
5:55 PM 35.6 °F 31.7 °F 30.2 °F 81% 29.91 in 10.0 mi NW 4.6 mph - N/A   Overcast
6:15 PM 35.6 °F 32.8 °F 30.2 °F 81% 29.92 in 10.0 mi NNW 3.5 mph - N/A   Overcast
6:35 PM 35.6 °F 29.9 °F 28.4 °F 75% 29.91 in 10.0 mi NNW 6.9 mph - N/A   Overcast
6:55 PM 37.4 °F 29.8 °F 26.6 °F 65% 29.91 in 10.0 mi North 11.5 mph 16.1 mph N/A   Overcast
7:15 PM 37.4 °F 28.5 °F 26.6 °F 65% 29.91 in 10.0 mi North 15.0 mph 21.9 mph N/A   Overcast
7:35 PM 37.4 °F 30.3 °F 26.6 °F 65% 29.92 in 10.0 mi North 10.4 mph 19.6 mph N/A   Mostly Cloudy
7:55 PM 37.4 °F 29.8 °F 26.6 °F 65% 29.91 in 10.0 mi North 11.5 mph 21.9 mph N/A   Mostly Cloudy
8:15 PM 37.4 °F 30.8 °F 24.8 °F 60% 29.92 in 10.0 mi North 9.2 mph 17.3 mph N/A   Overcast
8:35 PM 37.4 °F 30.3 °F 26.6 °F 65% 29.92 in 10.0 mi North 10.4 mph 20.7 mph N/A   Overcast
8:55 PM 35.6 °F 27.5 °F 26.6 °F 70% 29.92 in 5.0 mi North 11.5 mph 21.9 mph N/A Snow Light Snow
9:15 PM 35.6 °F 26.2 °F 26.6 °F 70% 29.92 in 7.0 mi North 15.0 mph 21.9 mph N/A Snow Light Snow
9:35 PM 35.6 °F 26.6 °F 26.6 °F 70% 29.92 in 7.0 mi North 13.8 mph 21.9 mph N/A Snow Light Snow
9:55 PM 35.6 °F 27.5 °F 26.6 °F 70% 29.91 in 7.0 mi North 11.5 mph 21.9 mph N/A Snow Light Snow
10:15 PM 35.6 °F 28.0 °F 24.8 °F 65% 29.91 in 5.0 mi North 10.4 mph 20.7 mph N/A Snow Light Snow
10:35 PM 35.6 °F 27.5 °F 24.8 °F 65% 29.90 in 4.0 mi NNW 11.5 mph 23.0 mph N/A Snow Light Snow
10:55 PM 37.4 °F 29.8 °F 21.2 °F 52% 29.88 in 10.0 mi NNW 11.5 mph 18.4 mph N/A   Overcast
11:15 PM 37.4 °F 28.9 °F 21.2 °F 52% 29.87 in 10.0 mi NNW 13.8 mph 19.6 mph N/A Snow Light Snow
11:35 PM 37.4 °F 32.1 °F 23.0 °F 56% 29.87 in 10.0 mi NNW 6.9 mph 18.4 mph N/A   Overcast
11:55 PM 37.4 °F 32.1 °F 23.0 °F 56% 29.86 in 10.0 mi NNW 6.9 mph - N/A   Overcast